Gloria do Goita, Brazil
Current Conditions -  °F | °C
As of 11:00 PM on Monday 24 Nov 2014 (Local Time) from SBRF Reporting Station
Scattered Clouds Scattered Clouds  
Wind Chill: 79°   Ceiling: Unl
Heat Index: 82°   Visibility: 6mi
Dew Point: 72°   Wind: 9mph
Humidity: 78%   Direction: 90°E
Pressure: 29.94"   Gusts: NA
Location:  8°S, 35.29°W
Report Text: SBRF 250200Z 09008KT 9999 SCT020 26/22 Q1014
Loading
Personal Weather Stations






























Interactive Weather Map New forecast layout! Learn more

10-Day Weather Forecast

Advertisements
Track Severe Weather on mobile